Skip Page Navigation
NASA JPL Caltech
NASA Logo - Jet Propulsion Laboratory + View the NASA Portal
+ Near-Earth Object (NEO) Program
Search JPL
JPL Home Earth Solar System Stars & Galaxies Technology
JPL Solar System Dynamics
BODIES ORBITS EPHEMERIDES TOOLS PHYSICAL DATA DISCOVERY FAQ SITE MAP
JPL Small-Body Database Browser
Search: [ help ]  
5210 Saint-Saens (1989 EL6)
Classification: Main-belt Asteroid          SPK-ID: 2005210
Ephemeris | Orbit Diagram | Orbital Elements | Physical Parameters | Discovery Circumstances ]

[ show orbit diagram ]
Orbital Elements at Epoch 2456400.5 (2013-Apr-18.0) TDB
Reference: MPO233544 (heliocentric ecliptic J2000)
 Element Value Uncertainty (1-sigma)   Units 
e 0.1485391 n/a  
a 2.4402892 n/a AU
q 2.0778108 n/a AU
i 2.14056 n/a deg
node 0.53690 n/a deg
peri 74.35547 n/a deg
M 175.98283 n/a deg
tp 2455719.8432476
(2011-Jun-07.34324760)
n/a JED
period 1392.3882851
3.81
n/a
n/a
d
yr
n 0.25854857 n/a deg/d
Q 2.8027676 n/a AU
  Orbit Determination Parameters
   # obs. used (total)      954  
   first obs. used      1970-??-??  
   last obs. used      2012-06-09  
   # oppositions      18  
   planetary ephem.      DE403  
   condition code      0  
   fit RMS      0.57  
   data source      MPC:mpn  
   producer      MPCLINUX  

Additional Information
 T_jup = 3.486 

Ephemeris | Orbit Diagram | Orbital Elements | Physical Parameters | Discovery Circumstances ]

Physical Parameter Table
Parameter Symbol Value Units Sigma Reference Notes
absolute magnitude H 14.4 mag n/a PDS3 (MPC 20136)  

5210 Saint-Saens (1989 EL6)          Discovered 1989-Mar-07 by Borngen, F. at Tautenburg (033)
Reference: DISCOVERY.DBLast Updated: 2003-08-29

Alternate Designations
 1989 EL6 = 1953 TE1 = 1970 EY1 = 1976 UK3 
Ephemeris | Orbit Diagram | Orbital Elements | Physical Parameters | Discovery Circumstances ]
ABOUT SSD CREDITS/AWARDS PRIVACY/COPYRIGHT GLOSSARY LINKS
FirstGov 2013-May-19 03:43 UT
(server date/time)  
NASA Home Page
Site Manager:   Donald K. Yeomans
Webmaster  Alan B. Chamberlin